Simultaneous Nadir Overpasses (SNOs) Predictions

Prediction of SNOs between AQUA and METOP-B Satellite Orbit:

Table of predicted SNOs for the next 14.0 days since TLE Epoch: 5/4/2024
Index Date (AQUA) Time (AQUA) Lat,Lon (AQUA) SZA (AQUA ) Date (METOP-B) Time (METOP-B) Lat,Lon (METOP-B) SZA (METOP-B ) Distance(km) Time Diff (sec)
1 05/04/2024 20:54:33 -75.24, 44.66 121.14 05/04/2024 20:53:25 -75.20, 42.33 121.15 66.29 68
2 05/04/2024 21:44:05 75.68,-148.94 59.30 05/04/2024 21:43:55 75.68,-148.90 59.30 1.23 10
3 05/04/2024 22:33:27 -75.71, 18.64 120.68 05/04/2024 22:34:35 -75.74, 18.64 120.65 4.00 68
4 05/07/2024 13:05:40 -75.68, 160.71 121.44 05/07/2024 13:04:50 -75.67, 160.84 121.44 3.52 50
5 05/07/2024 13:55:04 75.72, -31.76 58.60 05/07/2024 13:55:29 75.72, -31.68 58.60 2.29 25
6 05/10/2024 05:16:37 -75.68, -81.98 122.15 05/10/2024 05:16:24 -75.71, -81.96 122.12 3.47 13
7 05/10/2024 06:06:01 75.73, 85.54 57.89 05/10/2024 06:07:03 75.75, 85.51 57.92 3.28 62
8 05/12/2024 20:38:10 75.66,-132.27 57.17 05/12/2024 20:37:17 75.66,-132.36 57.17 2.35 53
9 05/12/2024 21:27:33 -75.74, 35.17 122.77 05/12/2024 21:27:57 -75.74, 35.21 122.77 1.11 24
10 05/15/2024 12:49:06 75.73, -15.15 56.60 05/15/2024 12:48:50 75.72, -15.08 56.59 2.21 16
11 05/15/2024 13:38:28 -75.75, 152.44 123.39 05/15/2024 13:39:31 -75.76, 152.35 123.39 2.41 63



Historial Predications of SNOs between AQUA and METOP-B
